This is the latest recevied weather packets stored in our database for station/object EA5JMY-13. If no packets are shown the sender has not sent any weather packets the latest 10 day(s).
| Time | Temp. | Humidity | Pressure | Rain* | Wind** | Luminosity | Snow |
|---|---|---|---|---|---|---|---|
| 1778151571 | 23.33° C | 52% | 1013.2 hPa | - | - | - | - |
| 1778151451 | 23.33° C | 52% | 1013.2 hPa | - | - | - | - |
| 1778151331 | 23.33° C | 52% | 1013.2 hPa | - | - | - | - |
| 1778151211 | 23.33° C | 51% | 1013.2 hPa | - | - | - | - |
| 1778151091 | 23.33° C | 52% | 1013.2 hPa | - | - | - | - |
| 1778150971 | 23.33° C | 52% | 1013.2 hPa | - | - | - | - |
| 1778150852 | 23.33° C | 52% | 1013.2 hPa | - | - | - | - |
| 1778150731 | 23.33° C | 52% | 1013.2 hPa | - | - | - | - |
| 1778150611 | 23.33° C | 51% | 1013.3 hPa | - | - | - | - |
| 1778150491 | 23.33° C | 50% | 1013.3 hPa | - | - | - | - |
| 1778150371 | 23.33° C | 47% | 1013.2 hPa | - | - | - | - |
| 1778150252 | 23.33° C | 46% | 1013.2 hPa | - | - | - | - |
| 1778150131 | 23.33° C | 46% | 1013.2 hPa | - | - | - | - |
| 1778150011 | 23.33° C | 48% | 1013.2 hPa | - | - | - | - |
| 1778149891 | 23.33° C | 48% | 1013.1 hPa | - | - | - | - |
| 1778149771 | 23.33° C | 50% | 1012.9 hPa | - | - | - | - |
| 1778149651 | 23.33° C | 51% | 1013.1 hPa | - | - | - | - |
| 1778149531 | 23.33° C | 52% | 1013.1 hPa | - | - | - | - |
| 1778149411 | 23.33° C | 50% | 1013.1 hPa | - | - | - | - |
| 1778149291 | 23.33° C | 51% | 1013.2 hPa | - | - | - | - |
| 1778149171 | 23.33° C | 51% | 1013.2 hPa | - | - | - | - |
| 1778149051 | 23.33° C | 51% | 1013.2 hPa | - | - | - | - |
| 1778148931 | 23.33° C | 49% | 1013.1 hPa | - | - | - | - |
| 1778148811 | 23.33° C | 50% | 1013.1 hPa | - | - | - | - |
| 1778148691 | 23.33° C | 50% | 1013.3 hPa | - | - | - | - |
* Rain since midnight (hover to see other rain measurements)
** Current wind speed in m/s (hover to see current wind gust speed)